iso_date,Year,Hour,Min,DOY,POS_DOY,Lat,Lon,BP,Ts,Ta,has_bp,has_ts,has_ta,BuoyID,Buoy_Type,Buoy_Owner,Logistics,Hemisphere
2022-08-01T16:00:02Z,2022,16,0,213.6667,213.6667,80.76705,6.26707,-999.0,8.0,-999.0,no,yes,no,300534062177000,NOMAD,AWI/USIABP,PolarStern,North
2022-08-01T16:59:57Z,2022,17,0,213.7083,213.7083,80.78571,6.85142,-999.0,4.4,-999.0,no,yes,no,300534062177000,NOMAD,AWI/USIABP,PolarStern,North
2022-08-01T18:00:00Z,2022,18,0,213.75,213.75,80.71911,6.26668,-999.0,3.5,-999.0,no,yes,no,300534062177000,NOMAD,AWI/USIABP,PolarStern,North
2022-08-01T19:00:02Z,2022,19,0,213.7917,213.7917,80.65374,5.71969,-999.0,2.7,-999.0,no,yes,no,300534062177000,NOMAD,AWI/USIABP,PolarStern,North
2022-08-01T19:59:57Z,2022,20,0,213.8333,213.8333,80.596,5.41444,-999.0,1.8,-999.0,no,yes,no,300534062177000,NOMAD,AWI/USIABP,PolarStern,North
2022-08-01T21:00:00Z,2022,21,0,213.875,213.875,80.66107,5.26627,-999.0,1.2,-999.0,no,yes,no,300534062177000,NOMAD,AWI/USIABP,PolarStern,North
2022-08-01T22:00:02Z,2022,22,0,213.9167,213.9167,80.76584,4.99556,-999.0,1.0,-999.0,no,yes,no,300534062177000,NOMAD,AWI/USIABP,PolarStern,North
2022-08-01T22:59:57Z,2022,23,0,213.9583,213.9583,80.77069,4.92711,-999.0,1.0,-999.0,no,yes,no,300534062177000,NOMAD,AWI/USIABP,PolarStern,North
2022-08-02T00:00:00Z,2022,0,0,214.0,214.0,80.76828,5.30172,-999.0,1.0,-999.0,no,yes,no,300534062177000,NOMAD,AWI/USIABP,PolarStern,North
2022-08-02T01:00:02Z,2022,1,0,214.0417,214.0417,80.77351,5.31324,-999.0,1.1,-999.0,no,yes,no,300534062177000,NOMAD,AWI/USIABP,PolarStern,North
2022-08-02T01:59:57Z,2022,2,0,214.0833,214.0833,80.76659,5.66721,-999.0,1.0,-999.0,no,yes,no,300534062177000,NOMAD,AWI/USIABP,PolarStern,North
2022-08-02T03:00:00Z,2022,3,0,214.125,214.125,80.76394,5.93081,-999.0,0.8,-999.0,no,yes,no,300534062177000,NOMAD,AWI/USIABP,PolarStern,North
2022-08-02T04:00:02Z,2022,4,0,214.1667,214.1667,80.76549,6.0073,-999.0,0.8,-999.0,no,yes,no,300534062177000,NOMAD,AWI/USIABP,PolarStern,North
2022-08-02T04:59:57Z,2022,5,0,214.2083,214.2083,80.76631,6.33468,-999.0,0.8,-999.0,no,yes,no,300534062177000,NOMAD,AWI/USIABP,PolarStern,North
2022-08-02T06:00:00Z,2022,6,0,214.25,214.25,80.76459,6.34447,-999.0,-0.7,-999.0,no,yes,no,300534062177000,NOMAD,AWI/USIABP,PolarStern,North
2022-08-02T07:00:02Z,2022,7,0,214.2917,214.2917,80.75737,6.3414,-999.0,-0.8,-999.0,no,yes,no,300534062177000,NOMAD,AWI/USIABP,PolarStern,North
2022-08-02T07:59:57Z,2022,8,0,214.3333,214.3333,80.74913,6.3165,-999.0,-0.7,-999.0,no,yes,no,300534062177000,NOMAD,AWI/USIABP,PolarStern,North
2022-08-02T09:00:00Z,2022,9,0,214.375,214.375,80.74043,6.29189,-999.0,-0.7,-999.0,no,yes,no,300534062177000,NOMAD,AWI/USIABP,PolarStern,North
2022-08-02T10:00:02Z,2022,10,0,214.4167,214.4167,80.73158,6.25269,-999.0,-0.8,-999.0,no,yes,no,300534062177000,NOMAD,AWI/USIABP,PolarStern,North
2022-08-02T10:59:57Z,2022,11,0,214.4583,214.4583,80.72295,6.20076,-999.0,-0.8,-999.0,no,yes,no,300534062177000,NOMAD,AWI/USIABP,PolarStern,North
2022-08-02T12:00:00Z,2022,12,0,214.5,214.5,80.71514,6.15098,-999.0,-0.8,-999.0,no,yes,no,300534062177000,NOMAD,AWI/USIABP,PolarStern,North
2022-08-02T13:00:02Z,2022,13,0,214.5417,214.5417,80.71043,6.09524,-999.0,-0.9,-999.0,no,yes,no,300534062177000,NOMAD,AWI/USIABP,PolarStern,North
2022-08-02T13:59:57Z,2022,14,0,214.5833,214.5833,80.70645,6.03563,-999.0,-0.9,-999.0,no,yes,no,300534062177000,NOMAD,AWI/USIABP,PolarStern,North
2022-08-02T15:00:00Z,2022,15,0,214.625,214.625,80.7044,5.97534,-999.0,-0.9,-999.0,no,yes,no,300534062177000,NOMAD,AWI/USIABP,PolarStern,North
2022-08-02T16:00:02Z,2022,16,0,214.6667,214.6667,80.70549,5.95193,-999.0,-0.7,-999.0,no,yes,no,300534062177000,NOMAD,AWI/USIABP,PolarStern,North
2022-08-02T16:59:57Z,2022,17,0,214.7083,214.7083,80.70719,5.92392,-999.0,-0.8,-999.0,no,yes,no,300534062177000,NOMAD,AWI/USIABP,PolarStern,North
2022-08-02T18:00:00Z,2022,18,0,214.75,214.75,80.7068,5.89608,-999.0,-0.9,-999.0,no,yes,no,300534062177000,NOMAD,AWI/USIABP,PolarStern,North
2022-08-02T19:00:02Z,2022,19,0,214.7917,214.7917,80.70598,5.84814,-999.0,-0.9,-999.0,no,yes,no,300534062177000,NOMAD,AWI/USIABP,PolarStern,North
2022-08-02T19:59:57Z,2022,20,0,214.8333,214.8333,80.70639,5.78748,-999.0,-0.9,-999.0,no,yes,no,300534062177000,NOMAD,AWI/USIABP,PolarStern,North
2022-08-02T21:00:00Z,2022,21,0,214.875,214.875,80.70803,5.71847,-999.0,-0.9,-999.0,no,yes,no,300534062177000,NOMAD,AWI/USIABP,PolarStern,North
2022-08-02T22:00:02Z,2022,22,0,214.9167,214.9167,80.7097,5.66215,-999.0,-0.9,-999.0,no,yes,no,300534062177000,NOMAD,AWI/USIABP,PolarStern,North
2022-08-02T22:59:57Z,2022,23,0,214.9583,214.9583,80.7176,5.59469,-999.0,-0.9,-999.0,no,yes,no,300534062177000,NOMAD,AWI/USIABP,PolarStern,North
2022-08-03T00:00:00Z,2022,0,0,215.0,215.0,80.51404,6.60731,-999.0,-0.9,-999.0,no,yes,no,300534062177000,NOMAD,AWI/USIABP,PolarStern,North
2022-08-03T01:00:02Z,2022,1,0,215.0417,215.0417,80.73253,5.55005,-999.0,-0.9,-999.0,no,yes,no,300534062177000,NOMAD,AWI/USIABP,PolarStern,North
2022-08-03T01:59:57Z,2022,2,0,215.0833,215.0833,80.73799,5.5562,-999.0,-0.9,-999.0,no,yes,no,300534062177000,NOMAD,AWI/USIABP,PolarStern,North
2022-08-03T03:00:00Z,2022,3,0,215.125,215.125,80.74199,5.56177,-999.0,-0.9,-999.0,no,yes,no,300534062177000,NOMAD,AWI/USIABP,PolarStern,North
2022-08-03T04:00:02Z,2022,4,0,215.1667,215.1667,80.74281,5.57654,-999.0,-0.8,-999.0,no,yes,no,300534062177000,NOMAD,AWI/USIABP,PolarStern,North
2022-08-03T04:59:57Z,2022,5,0,215.2083,215.2083,80.74117,5.57224,-999.0,-0.9,-999.0,no,yes,no,300534062177000,NOMAD,AWI/USIABP,PolarStern,North
2022-08-03T06:00:00Z,2022,6,0,215.25,215.25,80.73803,5.55184,-999.0,-0.8,-999.0,no,yes,no,300534062177000,NOMAD,AWI/USIABP,PolarStern,North
2022-08-03T07:00:02Z,2022,7,0,215.2917,215.2917,80.73579,5.52489,-999.0,-0.7,-999.0,no,yes,no,300534062177000,NOMAD,AWI/USIABP,PolarStern,North
2022-08-03T07:59:57Z,2022,8,0,215.3333,215.3333,80.73438,5.48193,-999.0,-0.7,-999.0,no,yes,no,300534062177000,NOMAD,AWI/USIABP,PolarStern,North
2022-08-03T09:00:00Z,2022,9,0,215.375,215.375,80.73376,5.4272,-999.0,-0.7,-999.0,no,yes,no,300534062177000,NOMAD,AWI/USIABP,PolarStern,North
2022-08-03T10:00:02Z,2022,10,0,215.4167,215.4167,80.73337,5.38118,-999.0,-0.7,-999.0,no,yes,no,300534062177000,NOMAD,AWI/USIABP,PolarStern,North
2022-08-03T10:59:57Z,2022,11,0,215.4583,215.4583,80.73507,5.33978,-999.0,-0.8,-999.0,no,yes,no,300534062177000,NOMAD,AWI/USIABP,PolarStern,North
2022-08-03T12:00:00Z,2022,12,0,215.5,215.5,80.73795,5.34192,-999.0,-0.7,-999.0,no,yes,no,300534062177000,NOMAD,AWI/USIABP,PolarStern,North
2022-08-03T13:00:02Z,2022,13,0,215.5417,215.5417,80.7384,5.34572,-999.0,-0.7,-999.0,no,yes,no,300534062177000,NOMAD,AWI/USIABP,PolarStern,North
2022-08-03T13:59:57Z,2022,14,0,215.5833,215.5833,80.7372,5.34353,-999.0,-0.7,-999.0,no,yes,no,300534062177000,NOMAD,AWI/USIABP,PolarStern,North
2022-08-03T15:00:00Z,2022,15,0,215.625,215.625,80.73476,5.33594,-999.0,-0.7,-999.0,no,yes,no,300534062177000,NOMAD,AWI/USIABP,PolarStern,North
2022-08-03T16:00:02Z,2022,16,0,215.6667,215.6667,80.73264,5.31512,-999.0,-0.7,-999.0,no,yes,no,300534062177000,NOMAD,AWI/USIABP,PolarStern,North
2022-08-03T16:59:57Z,2022,17,0,215.7083,215.7083,80.73206,5.28349,-999.0,-0.7,-999.0,no,yes,no,300534062177000,NOMAD,AWI/USIABP,PolarStern,North
2022-08-03T18:00:00Z,2022,18,0,215.75,215.75,80.73257,5.25468,-999.0,-0.8,-999.0,no,yes,no,300534062177000,NOMAD,AWI/USIABP,PolarStern,North
2022-08-03T19:00:02Z,2022,19,0,215.7917,215.7917,80.73402,5.22613,-999.0,-0.8,-999.0,no,yes,no,300534062177000,NOMAD,AWI/USIABP,PolarStern,North
2022-08-03T19:59:57Z,2022,20,0,215.8333,215.8333,80.73764,5.19098,-999.0,-0.9,-999.0,no,yes,no,300534062177000,NOMAD,AWI/USIABP,PolarStern,North
2022-08-03T21:00:00Z,2022,21,0,215.875,215.875,80.7403,5.14962,-999.0,-0.9,-999.0,no,yes,no,300534062177000,NOMAD,AWI/USIABP,PolarStern,North
2022-08-03T22:00:02Z,2022,22,0,215.9167,215.9167,80.74396,5.11234,-999.0,-1.0,-999.0,no,yes,no,300534062177000,NOMAD,AWI/USIABP,PolarStern,North
2022-08-03T22:59:57Z,2022,23,0,215.9583,215.9583,80.74791,5.08364,-999.0,-0.9,-999.0,no,yes,no,300534062177000,NOMAD,AWI/USIABP,PolarStern,North
2022-08-04T00:00:00Z,2022,0,0,216.0,216.0,80.75502,5.0605,-999.0,-0.9,-999.0,no,yes,no,300534062177000,NOMAD,AWI/USIABP,PolarStern,North
2022-08-04T01:00:02Z,2022,1,0,216.0417,216.0417,80.76135,5.06183,-999.0,-0.9,-999.0,no,yes,no,300534062177000,NOMAD,AWI/USIABP,PolarStern,North
2022-08-04T01:59:57Z,2022,2,0,216.0833,216.0833,80.76624,5.08627,-999.0,-0.9,-999.0,no,yes,no,300534062177000,NOMAD,AWI/USIABP,PolarStern,North
2022-08-04T03:00:00Z,2022,3,0,216.125,216.125,80.77084,5.12671,-999.0,-0.9,-999.0,no,yes,no,300534062177000,NOMAD,AWI/USIABP,PolarStern,North
2022-08-04T04:00:02Z,2022,4,0,216.1667,216.1667,80.77293,5.1639,-999.0,-1.0,-999.0,no,yes,no,300534062177000,NOMAD,AWI/USIABP,PolarStern,North
2022-08-04T04:59:57Z,2022,5,0,216.2083,216.2083,80.77221,5.19486,-999.0,-0.9,-999.0,no,yes,no,300534062177000,NOMAD,AWI/USIABP,PolarStern,North
2022-08-04T06:00:00Z,2022,6,0,216.25,216.25,80.77049,5.20838,-999.0,-0.9,-999.0,no,yes,no,300534062177000,NOMAD,AWI/USIABP,PolarStern,North
2022-08-04T07:00:02Z,2022,7,0,216.2917,216.2917,80.76745,5.22386,-999.0,-0.9,-999.0,no,yes,no,300534062177000,NOMAD,AWI/USIABP,PolarStern,North
2022-08-04T07:59:57Z,2022,8,0,216.3333,216.3333,80.76563,5.22632,-999.0,-1.0,-999.0,no,yes,no,300534062177000,NOMAD,AWI/USIABP,PolarStern,North
2022-08-04T09:00:00Z,2022,9,0,216.375,216.375,80.76389,5.21698,-999.0,-0.9,-999.0,no,yes,no,300534062177000,NOMAD,AWI/USIABP,PolarStern,North
2022-08-04T10:00:02Z,2022,10,0,216.4167,216.4167,80.76291,5.21182,-999.0,-0.9,-999.0,no,yes,no,300534062177000,NOMAD,AWI/USIABP,PolarStern,North
2022-08-04T10:59:57Z,2022,11,0,216.4583,216.4583,80.76272,5.20225,-999.0,-0.9,-999.0,no,yes,no,300534062177000,NOMAD,AWI/USIABP,PolarStern,North
2022-08-04T12:00:00Z,2022,12,0,216.5,216.5,80.76141,5.19441,-999.0,-0.8,-999.0,no,yes,no,300534062177000,NOMAD,AWI/USIABP,PolarStern,North
2022-08-04T13:00:02Z,2022,13,0,216.5417,216.5417,80.76116,5.192,-999.0,-0.8,-999.0,no,yes,no,300534062177000,NOMAD,AWI/USIABP,PolarStern,North
2022-08-04T13:59:57Z,2022,14,0,216.5833,216.5833,80.76186,5.20023,-999.0,-0.8,-999.0,no,yes,no,300534062177000,NOMAD,AWI/USIABP,PolarStern,North
2022-08-04T15:00:00Z,2022,15,0,216.625,216.625,80.76186,5.19992,-999.0,-0.8,-999.0,no,yes,no,300534062177000,NOMAD,AWI/USIABP,PolarStern,North
2022-08-04T16:00:02Z,2022,16,0,216.6667,216.6667,80.76143,5.19806,-999.0,-0.8,-999.0,no,yes,no,300534062177000,NOMAD,AWI/USIABP,PolarStern,North
2022-08-04T16:59:57Z,2022,17,0,216.7083,216.7083,80.76137,5.18862,-999.0,-0.7,-999.0,no,yes,no,300534062177000,NOMAD,AWI/USIABP,PolarStern,North
2022-08-04T18:00:00Z,2022,18,0,216.75,216.75,80.76066,5.17809,-999.0,-0.7,-999.0,no,yes,no,300534062177000,NOMAD,AWI/USIABP,PolarStern,North
2022-08-04T19:00:02Z,2022,19,0,216.7917,216.7917,80.76488,5.1628,-999.0,-0.8,-999.0,no,yes,no,300534062177000,NOMAD,AWI/USIABP,PolarStern,North
2022-08-04T19:59:57Z,2022,20,0,216.8333,216.8333,80.76869,5.14961,-999.0,-0.9,-999.0,no,yes,no,300534062177000,NOMAD,AWI/USIABP,PolarStern,North
2022-08-04T21:00:00Z,2022,21,0,216.875,216.875,80.76999,5.12998,-999.0,-0.9,-999.0,no,yes,no,300534062177000,NOMAD,AWI/USIABP,PolarStern,North
2022-08-04T22:00:02Z,2022,22,0,216.9167,216.9167,80.77464,5.08975,-999.0,-0.9,-999.0,no,yes,no,300534062177000,NOMAD,AWI/USIABP,PolarStern,North
2022-08-04T22:59:57Z,2022,23,0,216.9583,216.9583,80.78306,5.04899,-999.0,-0.8,-999.0,no,yes,no,300534062177000,NOMAD,AWI/USIABP,PolarStern,North
2022-08-05T00:00:00Z,2022,0,0,217.0,217.0,80.79317,5.0209,-999.0,-0.9,-999.0,no,yes,no,300534062177000,NOMAD,AWI/USIABP,PolarStern,North
2022-08-05T01:00:02Z,2022,1,0,217.0417,217.0417,80.80353,5.02463,-999.0,-0.9,-999.0,no,yes,no,300534062177000,NOMAD,AWI/USIABP,PolarStern,North
2022-08-05T01:59:57Z,2022,2,0,217.0833,217.0833,80.81203,5.04617,-999.0,-0.9,-999.0,no,yes,no,300534062177000,NOMAD,AWI/USIABP,PolarStern,North
2022-08-05T03:00:00Z,2022,3,0,217.125,217.125,80.81488,5.085,-999.0,-0.9,-999.0,no,yes,no,300534062177000,NOMAD,AWI/USIABP,PolarStern,North
2022-08-05T04:00:02Z,2022,4,0,217.1667,217.1667,80.81331,5.11684,-999.0,-0.9,-999.0,no,yes,no,300534062177000,NOMAD,AWI/USIABP,PolarStern,North
2022-08-05T04:59:57Z,2022,5,0,217.2083,217.2083,80.80927,5.12738,-999.0,-0.9,-999.0,no,yes,no,300534062177000,NOMAD,AWI/USIABP,PolarStern,North
2022-08-05T06:00:00Z,2022,6,0,217.25,217.25,80.80644,5.11816,-999.0,-0.9,-999.0,no,yes,no,300534062177000,NOMAD,AWI/USIABP,PolarStern,North
2022-08-05T07:00:02Z,2022,7,0,217.2917,217.2917,80.80462,5.11322,-999.0,-1.0,-999.0,no,yes,no,300534062177000,NOMAD,AWI/USIABP,PolarStern,North
2022-08-05T07:59:57Z,2022,8,0,217.3333,217.3333,80.80249,5.10301,-999.0,-1.0,-999.0,no,yes,no,300534062177000,NOMAD,AWI/USIABP,PolarStern,North
2022-08-05T09:00:00Z,2022,9,0,217.375,217.375,80.79938,5.09254,-999.0,-1.0,-999.0,no,yes,no,300534062177000,NOMAD,AWI/USIABP,PolarStern,North
2022-08-05T10:00:02Z,2022,10,0,217.4167,217.4167,80.79666,5.0918,-999.0,-1.0,-999.0,no,yes,no,300534062177000,NOMAD,AWI/USIABP,PolarStern,North
2022-08-05T10:59:57Z,2022,11,0,217.4583,217.4583,80.79391,5.09846,-999.0,-0.9,-999.0,no,yes,no,300534062177000,NOMAD,AWI/USIABP,PolarStern,North
2022-08-05T12:00:00Z,2022,12,0,217.5,217.5,80.78935,5.10631,-999.0,-0.9,-999.0,no,yes,no,300534062177000,NOMAD,AWI/USIABP,PolarStern,North
2022-08-05T13:00:02Z,2022,13,0,217.5417,217.5417,80.78551,5.11918,-999.0,-0.9,-999.0,no,yes,no,300534062177000,NOMAD,AWI/USIABP,PolarStern,North
2022-08-05T13:59:57Z,2022,14,0,217.5833,217.5833,80.78092,5.14068,-999.0,-0.9,-999.0,no,yes,no,300534062177000,NOMAD,AWI/USIABP,PolarStern,North
2022-08-05T15:00:00Z,2022,15,0,217.625,217.625,80.77466,5.16723,-999.0,-0.8,-999.0,no,yes,no,300534062177000,NOMAD,AWI/USIABP,PolarStern,North
2022-08-05T16:00:02Z,2022,16,0,217.6667,217.6667,80.7689,5.173,-999.0,-0.9,-999.0,no,yes,no,300534062177000,NOMAD,AWI/USIABP,PolarStern,North
2022-08-05T16:59:57Z,2022,17,0,217.7083,217.7083,80.76486,5.16105,-999.0,-0.7,-999.0,no,yes,no,300534062177000,NOMAD,AWI/USIABP,PolarStern,North
2022-08-06T22:00:02Z,2022,22,0,218.9167,218.9167,80.80545,5.0082,-999.0,-0.9,-999.0,no,yes,no,300534062177000,NOMAD,AWI/USIABP,PolarStern,North
2022-08-06T22:59:57Z,2022,23,0,218.9583,218.9583,80.80124,4.99244,-999.0,-0.7,-999.0,no,yes,no,300534062177000,NOMAD,AWI/USIABP,PolarStern,North
2022-08-07T00:00:00Z,2022,0,0,219.0,219.0,80.79944,4.9783,-999.0,-0.7,-999.0,no,yes,no,300534062177000,NOMAD,AWI/USIABP,PolarStern,North
2022-08-07T01:00:02Z,2022,1,0,219.0417,219.0417,80.79784,4.9745,-999.0,-0.7,-999.0,no,yes,no,300534062177000,NOMAD,AWI/USIABP,PolarStern,North
2022-08-07T01:59:57Z,2022,2,0,219.0833,219.0833,80.79484,4.99454,-999.0,-0.7,-999.0,no,yes,no,300534062177000,NOMAD,AWI/USIABP,PolarStern,North
2022-08-07T03:00:00Z,2022,3,0,219.125,219.125,80.78882,5.00684,-999.0,-0.7,-999.0,no,yes,no,300534062177000,NOMAD,AWI/USIABP,PolarStern,North
2022-08-07T04:00:02Z,2022,4,0,219.1667,219.1667,80.78098,5.00728,-999.0,-0.7,-999.0,no,yes,no,300534062177000,NOMAD,AWI/USIABP,PolarStern,North
2022-08-07T04:59:57Z,2022,5,0,219.2083,219.2083,80.77395,5.00621,-999.0,-0.7,-999.0,no,yes,no,300534062177000,NOMAD,AWI/USIABP,PolarStern,North
2022-08-07T06:00:00Z,2022,6,0,219.25,219.25,80.7648,5.00404,-999.0,-0.9,-999.0,no,yes,no,300534062177000,NOMAD,AWI/USIABP,PolarStern,North
2022-08-07T07:00:02Z,2022,7,0,219.2917,219.2917,80.75468,4.99804,-999.0,-1.0,-999.0,no,yes,no,300534062177000,NOMAD,AWI/USIABP,PolarStern,North
2022-08-07T07:59:57Z,2022,8,0,219.3333,219.3333,80.7452,4.98822,-999.0,-1.0,-999.0,no,yes,no,300534062177000,NOMAD,AWI/USIABP,PolarStern,North
2022-08-07T09:00:00Z,2022,9,0,219.375,219.375,80.7386,4.98222,-999.0,-0.8,-999.0,no,yes,no,300534062177000,NOMAD,AWI/USIABP,PolarStern,North
2022-08-07T10:00:02Z,2022,10,0,219.4167,219.4167,80.73187,4.97757,-999.0,-0.9,-999.0,no,yes,no,300534062177000,NOMAD,AWI/USIABP,PolarStern,North
2022-08-07T10:59:57Z,2022,11,0,219.4583,219.4583,80.72652,4.97322,-999.0,-0.8,-999.0,no,yes,no,300534062177000,NOMAD,AWI/USIABP,PolarStern,North
2022-08-07T12:00:00Z,2022,12,0,219.5,219.5,80.72122,4.97327,-999.0,-0.9,-999.0,no,yes,no,300534062177000,NOMAD,AWI/USIABP,PolarStern,North
2022-08-07T13:00:02Z,2022,13,0,219.5417,219.5417,80.71515,4.97611,-999.0,-0.9,-999.0,no,yes,no,300534062177000,NOMAD,AWI/USIABP,PolarStern,North
2022-08-07T13:59:57Z,2022,14,0,219.5833,219.5833,80.7087,4.98048,-999.0,-0.9,-999.0,no,yes,no,300534062177000,NOMAD,AWI/USIABP,PolarStern,North
2022-08-07T15:00:00Z,2022,15,0,219.625,219.625,80.70094,4.9823,-999.0,-0.9,-999.0,no,yes,no,300534062177000,NOMAD,AWI/USIABP,PolarStern,North
2022-08-07T16:00:02Z,2022,16,0,219.6667,219.6667,80.69201,4.97458,-999.0,-0.9,-999.0,no,yes,no,300534062177000,NOMAD,AWI/USIABP,PolarStern,North
2022-08-07T16:59:57Z,2022,17,0,219.7083,219.7083,80.68443,4.96286,-999.0,-0.9,-999.0,no,yes,no,300534062177000,NOMAD,AWI/USIABP,PolarStern,North
2022-08-07T18:00:00Z,2022,18,0,219.75,219.75,80.67837,4.94927,-999.0,-0.9,-999.0,no,yes,no,300534062177000,NOMAD,AWI/USIABP,PolarStern,North
2022-08-07T19:00:02Z,2022,19,0,219.7917,219.7917,80.67393,4.93662,-999.0,-0.9,-999.0,no,yes,no,300534062177000,NOMAD,AWI/USIABP,PolarStern,North
2022-08-07T19:59:57Z,2022,20,0,219.8333,219.8333,80.67273,4.92672,-999.0,-1.0,-999.0,no,yes,no,300534062177000,NOMAD,AWI/USIABP,PolarStern,North
2022-08-07T21:00:00Z,2022,21,0,219.875,219.875,80.67305,4.93527,-999.0,-1.0,-999.0,no,yes,no,300534062177000,NOMAD,AWI/USIABP,PolarStern,North
2022-08-07T22:00:02Z,2022,22,0,219.9167,219.9167,80.67352,4.95515,-999.0,-1.0,-999.0,no,yes,no,300534062177000,NOMAD,AWI/USIABP,PolarStern,North
2022-08-07T22:59:57Z,2022,23,0,219.9583,219.9583,80.67228,4.9828,-999.0,-1.0,-999.0,no,yes,no,300534062177000,NOMAD,AWI/USIABP,PolarStern,North
2022-08-08T00:00:00Z,2022,0,0,220.0,220.0,80.66864,5.02093,-999.0,-0.9,-999.0,no,yes,no,300534062177000,NOMAD,AWI/USIABP,PolarStern,North
2022-08-08T01:00:02Z,2022,1,0,220.0417,220.0417,80.66107,5.06505,-999.0,-1.0,-999.0,no,yes,no,300534062177000,NOMAD,AWI/USIABP,PolarStern,North
2022-08-08T01:59:57Z,2022,2,0,220.0833,220.0833,80.65015,5.09377,-999.0,-1.0,-999.0,no,yes,no,300534062177000,NOMAD,AWI/USIABP,PolarStern,North
2022-08-08T03:00:00Z,2022,3,0,220.125,220.125,80.63797,5.10769,-999.0,-1.0,-999.0,no,yes,no,300534062177000,NOMAD,AWI/USIABP,PolarStern,North
2022-08-08T04:00:02Z,2022,4,0,220.1667,220.1667,80.62571,5.09823,-999.0,-1.0,-999.0,no,yes,no,300534062177000,NOMAD,AWI/USIABP,PolarStern,North
2022-08-08T04:59:57Z,2022,5,0,220.2083,220.2083,80.61484,5.08209,-999.0,-1.0,-999.0,no,yes,no,300534062177000,NOMAD,AWI/USIABP,PolarStern,North
2022-08-08T06:00:00Z,2022,6,0,220.25,220.25,80.60671,5.06941,-999.0,-1.2,-999.0,no,yes,no,300534062177000,NOMAD,AWI/USIABP,PolarStern,North
2022-08-08T07:00:02Z,2022,7,0,220.2917,220.2917,80.59957,5.06172,-999.0,-1.1,-999.0,no,yes,no,300534062177000,NOMAD,AWI/USIABP,PolarStern,North
2022-08-08T07:59:57Z,2022,8,0,220.3333,220.3333,80.59424,5.05689,-999.0,-1.1,-999.0,no,yes,no,300534062177000,NOMAD,AWI/USIABP,PolarStern,North
2022-08-08T09:00:00Z,2022,9,0,220.375,220.375,80.58837,5.05519,-999.0,-1.2,-999.0,no,yes,no,300534062177000,NOMAD,AWI/USIABP,PolarStern,North
2022-08-08T10:00:02Z,2022,10,0,220.4167,220.4167,80.58187,5.04725,-999.0,-1.2,-999.0,no,yes,no,300534062177000,NOMAD,AWI/USIABP,PolarStern,North
2022-08-08T10:59:57Z,2022,11,0,220.4583,220.4583,80.57758,5.03517,-999.0,-1.2,-999.0,no,yes,no,300534062177000,NOMAD,AWI/USIABP,PolarStern,North
2022-08-08T12:00:00Z,2022,12,0,220.5,220.5,80.57419,5.02675,-999.0,-1.2,-999.0,no,yes,no,300534062177000,NOMAD,AWI/USIABP,PolarStern,North
2022-08-08T13:00:02Z,2022,13,0,220.5417,220.5417,80.57095,5.02524,-999.0,-1.1,-999.0,no,yes,no,300534062177000,NOMAD,AWI/USIABP,PolarStern,North
2022-08-08T13:59:57Z,2022,14,0,220.5833,220.5833,80.56646,5.0278,-999.0,-1.0,-999.0,no,yes,no,300534062177000,NOMAD,AWI/USIABP,PolarStern,North
2022-08-08T15:00:00Z,2022,15,0,220.625,220.625,80.56083,5.02878,-999.0,-1.0,-999.0,no,yes,no,300534062177000,NOMAD,AWI/USIABP,PolarStern,North
2022-08-08T16:00:02Z,2022,16,0,220.6667,220.6667,80.55362,5.02177,-999.0,-1.1,-999.0,no,yes,no,300534062177000,NOMAD,AWI/USIABP,PolarStern,North
2022-08-08T16:59:57Z,2022,17,0,220.7083,220.7083,80.54768,5.00651,-999.0,-1.2,-999.0,no,yes,no,300534062177000,NOMAD,AWI/USIABP,PolarStern,North
2022-08-08T18:00:00Z,2022,18,0,220.75,220.75,80.54287,4.98598,-999.0,-1.2,-999.0,no,yes,no,300534062177000,NOMAD,AWI/USIABP,PolarStern,North
2022-08-09T00:00:00Z,2022,0,0,221.0,221.0,80.54305,5.01149,-999.0,-0.9,-999.0,no,yes,no,300534062177000,NOMAD,AWI/USIABP,PolarStern,North
2022-08-09T01:00:02Z,2022,1,0,221.0417,221.0417,80.53939,5.04135,-999.0,-0.8,-999.0,no,yes,no,300534062177000,NOMAD,AWI/USIABP,PolarStern,North
2022-08-09T01:59:57Z,2022,2,0,221.0833,221.0833,80.53325,5.06265,-999.0,-0.9,-999.0,no,yes,no,300534062177000,NOMAD,AWI/USIABP,PolarStern,North
2022-08-09T03:00:00Z,2022,3,0,221.125,221.125,80.5249,5.06713,-999.0,-1.0,-999.0,no,yes,no,300534062177000,NOMAD,AWI/USIABP,PolarStern,North
2022-08-09T04:00:02Z,2022,4,0,221.1667,221.1667,80.51693,5.0563,-999.0,-0.5,-999.0,no,yes,no,300534062177000,NOMAD,AWI/USIABP,PolarStern,North
2022-08-09T04:59:57Z,2022,5,0,221.2083,221.2083,80.51053,5.04117,-999.0,-0.4,-999.0,no,yes,no,300534062177000,NOMAD,AWI/USIABP,PolarStern,North
2022-08-09T06:00:00Z,2022,6,0,221.25,221.25,80.50534,5.03077,-999.0,-0.1,-999.0,no,yes,no,300534062177000,NOMAD,AWI/USIABP,PolarStern,North
2022-08-09T07:00:02Z,2022,7,0,221.2917,221.2917,80.49892,5.0148,-999.0,0.0,-999.0,no,yes,no,300534062177000,NOMAD,AWI/USIABP,PolarStern,North
2022-08-10T00:00:00Z,2022,0,0,222.0,222.0,80.46344,4.8257,-999.0,-0.7,-999.0,no,yes,no,300534062177000,NOMAD,AWI/USIABP,PolarStern,North
2022-08-10T01:00:02Z,2022,1,0,222.0417,222.0417,80.46157,4.82732,-999.0,-1.0,-999.0,no,yes,no,300534062177000,NOMAD,AWI/USIABP,PolarStern,North
2022-08-10T01:59:57Z,2022,2,0,222.0833,222.0833,80.45901,4.81876,-999.0,-0.6,-999.0,no,yes,no,300534062177000,NOMAD,AWI/USIABP,PolarStern,North
2022-08-10T03:00:00Z,2022,3,0,222.125,222.125,80.45632,4.80274,-999.0,-0.6,-999.0,no,yes,no,300534062177000,NOMAD,AWI/USIABP,PolarStern,North
2022-08-10T04:00:02Z,2022,4,0,222.1667,222.1667,80.45446,4.77464,-999.0,-0.7,-999.0,no,yes,no,300534062177000,NOMAD,AWI/USIABP,PolarStern,North
2022-08-10T04:59:57Z,2022,5,0,222.2083,222.2083,80.45488,4.73565,-999.0,-0.5,-999.0,no,yes,no,300534062177000,NOMAD,AWI/USIABP,PolarStern,North
2022-08-10T06:00:00Z,2022,6,0,222.25,222.25,80.45749,4.70262,-999.0,-0.6,-999.0,no,yes,no,300534062177000,NOMAD,AWI/USIABP,PolarStern,North
2022-08-10T07:00:02Z,2022,7,0,222.2917,222.2917,80.46022,4.69326,-999.0,-0.7,-999.0,no,yes,no,300534062177000,NOMAD,AWI/USIABP,PolarStern,North
2022-08-11T00:00:00Z,2022,0,0,223.0,223.0,80.51188,4.34498,-999.0,0.8,-999.0,no,yes,no,300534062177000,NOMAD,AWI/USIABP,PolarStern,North
2022-08-11T01:00:02Z,2022,1,0,223.0417,223.0417,80.519,4.33161,-999.0,1.0,-999.0,no,yes,no,300534062177000,NOMAD,AWI/USIABP,PolarStern,North
2022-08-11T01:59:57Z,2022,2,0,223.0833,223.0833,80.52364,4.31974,-999.0,1.1,-999.0,no,yes,no,300534062177000,NOMAD,AWI/USIABP,PolarStern,North
2022-08-11T03:00:00Z,2022,3,0,223.125,223.125,80.52556,4.3027,-999.0,1.3,-999.0,no,yes,no,300534062177000,NOMAD,AWI/USIABP,PolarStern,North
2022-08-11T04:00:02Z,2022,4,0,223.1667,223.1667,80.52629,4.27481,-999.0,1.3,-999.0,no,yes,no,300534062177000,NOMAD,AWI/USIABP,PolarStern,North
2022-08-11T04:59:57Z,2022,5,0,223.2083,223.2083,80.52518,4.22714,-999.0,1.3,-999.0,no,yes,no,300534062177000,NOMAD,AWI/USIABP,PolarStern,North
2022-08-11T06:00:00Z,2022,6,0,223.25,223.25,80.52401,4.17801,-999.0,1.3,-999.0,no,yes,no,300534062177000,NOMAD,AWI/USIABP,PolarStern,North
2022-08-11T07:00:02Z,2022,7,0,223.2917,223.2917,80.52044,4.13669,-999.0,0.6,-999.0,no,yes,no,300534062177000,NOMAD,AWI/USIABP,PolarStern,North